• Processing (Info)

  • MPEC 2003-W26 : 2002 RB126

    The following Minor Planet Electronic Circular may be linked-to from your own Web pages, but must not otherwise be redistributed electronically.

    A form allowing access to any MPEC is at the bottom of this page.


    Read MPEC 2003-W25 Read MPEC 2003-W27


    M.P.E.C. 2003-W26                                Issued 2003 Nov. 20, 20:54 UT
    
         The Minor Planet Electronic Circulars contain information on unusual
             minor planets and routine data on comets.  They are published
       on behalf of Commission 20 of the International Astronomical Union by the
              Minor Planet Center, Smithsonian Astrophysical Observatory,
                              Cambridge, MA 02138, U.S.A.
    
             Supported in part by the Steven and Michele Kirsch Foundation
                 Prepared using the Tamkin Foundation Computer Network
    
                                  MPC@CFA.HARVARD.EDU
              URL http://cfa-www.harvard.edu/iau/mpc.html  ISSN 1523-6714
    
                                      2002 RB126
    
                               Revision to MPEC 2002-R59
    
    Additional Observations:
         K02RC6B 5C2003 11 18.37859 07 13 19.87 +47 38 01.5          21.0 R      673
         K02RC6B 5C2003 11 18.38229 07 13 19.75 +47 38 06.3                      673
         K02RC6B 5C2003 11 18.42049 07 13 18.88 +47 38 48.4                      673
         K02RC6B 5C2003 11 18.42407 07 13 18.71 +47 38 54.1                      673
         K02RC6B 5C2003 11 20.40694 07 12 24.75 +48 16 38.6          21.0 R      673
         K02RC6B 5C2003 11 20.41944 07 12 24.34 +48 16 53.9                      673
         K02RC6B 5C2003 11 20.43079 07 12 23.95 +48 17 06.7                      673
         K02RC6B 5C2003 11 20.44306 07 12 23.47 +48 17 21.4                      673
    
    Observer details:
    673 Table Mountain Observatory, Wrightwood.  Observer J. Young.  0.6-m
        reflector + CCD.
    
    First and last observations above in comparison with prediction:
    Residuals in seconds of arc, reference and Delta-T
    031118 673  8.8+  1.5-    031120 673  9.3+  2.7-    MPO 48265   -0.0053 day
    
    Orbital elements:
    2002 RB126
    Epoch 2003 Dec. 27.0 TT = JDT 2453000.5                 MPC
    M 304.08939              (2000.0)            P               Q
    n   0.57652030     Peri.  224.68875     -0.62136630     +0.78285729
    a   1.4297485      Node     7.11431     -0.62620336     -0.47146762
    e   0.7221396      Incl.   15.08123     -0.47092811     -0.40602063
    P   1.71           H   18.5           G   0.15           U   3
    Residuals in seconds of arc
    020911 G78  0.1-  0.3-    020919 644 (4.0-  0.4+)   020929 246  0.8+  0.1+
    020911 G78  0.3+  0.3-    020920 711  0.3+  0.1+    020929 246  0.8+  0.2+
    020911 G78  0.1+  0.4-    020920 711  0.2+  0.1+    020929 246  0.9+  0.2+
    020912 G78  0.1+  0.4-    020920 711  0.2+  0.2+    020929 246  0.3+  0.2+
    020912 G78  0.9+  0.7-    020923 649  0.3-  0.1+    020930 108 (0.5+  2.3+)
    020912 G78  0.6-  0.0     020923 649  0.1-  0.1+    020930 469  0.9-  0.5+
    020912 G78  0.0   0.1+    020923 649  0.3-  0.4+    020930 469  0.4-  0.4+
    020912 G78  0.7-  0.8-    020923 649  0.1-  0.2+    020930 469  0.3+  0.1-
    020912 G78  0.9+  0.0     020924 649  0.3-  0.3+    020930 469  0.5+  0.0
    020912 474  0.4-  0.1-    020924 649  0.2-  0.0     021001 699  0.3+  0.7+
    020912 474  0.2-  0.0     020924 649  0.8+  0.3-    021001 699  0.4+  0.4+
    020912 474  0.1-  0.2-    020924 926  0.5+  0.7+    021001 699  0.5+  0.5+
    020912 474  1.6-  0.8+    020924 926  0.6+  0.6+    021001 699  0.6+  0.5+
    020912 474  1.6-  1.0+    020924 926  0.1-  0.6+    021002 608 (0.3-  2.9+)
    020913 704  0.0   0.2+    020924 926  1.0-  0.2-    021002 608  0.4+  0.9+
    020913 704  0.0   0.3-    020924 926  0.4+  0.1+    021002 608  1.3+  1.5+
    020913 G78  0.5+  0.4-    020925 J95  0.9-  0.2+    021003 704  0.4-  0.5+
    020913 G78  1.9-  0.0     020925 J95  0.2+  0.1-    021003 704  0.2-  0.4+
    020913 G78  0.6+  0.1-    020925 J95  0.2-  0.6+    021003 704  0.1-  0.0
    020913 704  0.1+  0.5-    020925 J95  0.3+  0.3+    021003 704  0.3-  0.1+
    020913 704  0.0   1.0-    020925 J95  0.3+  0.1+    021003 704  0.2-  0.5+
    020913 118  0.2+  0.1+    020925 J95  0.2-  0.3+    021003 940  0.3+  0.0
    020913 118  0.5+  0.1+    020925 J95  0.0   0.4+    021003 940  0.0   0.3+
    020914 118  0.0   0.3+    020925 170  0.5+  0.5-    021003 940  0.1+  0.1-
    020914 118  0.4+  0.1+    020925 170  0.4+  0.2-    021003 940  0.0   0.2+
    020914 246  0.4+  0.1+    020925 170 (4.2-  0.4+)   021003 940  0.0   0.7+
    020914 246  0.6+  0.3-    020925 170  0.4+  0.6-    021003 940  0.2+  0.5+
    020914 246  0.3-  0.0     020925 170  1.0+  0.0     021003 940  0.2-  0.3+
    020914 246  0.4+  0.0     020925 170  0.5+  0.1-    021003 940  0.6-  0.1-
    020914 246  0.6+  0.1-    020927 941  0.4-  0.1-    021003 940  0.6-  0.4+
    020914 246  1.1+  0.1-    020927 941  0.7+  0.4+    021003 940  0.2-  0.2+
    020914 246  0.8+  0.1-    020927 941  0.6+  0.1-    021003 940  1.0-  0.3+
    020914 246  0.5+  0.1+    020927 941  0.3-  0.1-    021003 940  0.7-  0.1-
    020914 151  0.1-  0.2-    020927 941  0.1+  0.1-    021003 940  0.0   0.1-
    020914 151  0.1+  0.3+    020928 176  0.4-  0.3+    021006 704  0.2-  0.1-
    020914 151  0.1-  0.3+    020928 176  0.2-  0.3+    021006 704  0.4-  0.3+
    020914 151  0.2-  0.1+    020928 176  0.1-  0.3+    021006 704  0.6-  0.1+
    020914 151  0.1-  0.1-    020928 176  0.1-  0.3+    021006 704  0.2-  0.1+
    020914 151  0.3+  0.3+    020928 176  0.0   0.2+    021006 704  0.1-  0.2-
    020914 151  0.1+  0.0     020928 046  0.1-  0.3-    021007 704  0.4-  0.6+
    020914 151  0.3+  0.2+    020928 046  0.2+  0.1-    021007 704  0.2+  0.4+
    020914 151  0.0   0.0     020928 046  0.3-  0.3-    021007 704  0.1-  0.6+
    020914 151  0.4+  0.4+    020928 046  0.2-  0.3+    021007 704  0.4+  0.6+
    020915 176  0.4-  0.0     020928 046  0.4+  0.6+    021007 704  0.4+  1.2+
    020915 176  0.5-  0.0     020928 941  1.1-  0.2-    021008 118  0.1+  0.5+
    020915 176  0.6-  0.1+    020928 941  0.4-  0.1-    021008 118  0.2+  1.0+
    020915 176  0.8-  0.1+    020928 941  0.0   0.6-    021008 118  0.5+  0.5+
    020915 176  0.9-  0.1+    020928 941  1.1-  0.9-    021008 118  0.1-  0.5+
    020915 G78  0.2+  0.4-    020928 941  0.3-  0.6-    021011 704  0.1-  0.5-
    020915 G78  0.7-  0.4-    020928 941  0.1-  0.7-    021011 704  0.1-  0.1+
    020915 G78  0.1+  0.3-    020928 941  0.8-  0.4-    021011 704  0.2+  0.3+
    020915 G78  0.2-  0.1-    020928 163  0.1+  0.6+    021011 704  0.1-  0.2+
    020915 G78  0.2+  0.5-    020928 163  0.0   0.7+    021011 704  0.4+  0.3+
    020915 G78  0.1+  0.6-    020928 163  0.1-  0.2+    021030 696  0.0   0.0
    020915 G78  0.0   0.5+    020928 163  0.3-  0.0     021030 645  0.0   0.2-
    020915 G78  0.4+  0.6-    020928 J95  0.6-  0.4+    021030 645  0.0   0.2-
    020915 G78  0.2+  0.4-    020928 J95  0.0   0.3+    021030 696  0.1-  0.0
    020915 G78  0.7-  0.9-    020928 J95  0.1-  0.3+    021031 645  0.0   0.3-
    020917 711  0.0   0.2+    020929 649  0.6-  0.1-    021031 645  0.0   0.3-
    020917 711  0.1+  0.1+    020929 649  0.7-  0.4+    031118 673  0.2-  0.6+
    020917 711  0.4-  0.1+    020929 649  0.1-  0.0     031118 673  0.5-  1.2+
    020917 G78  0.7+  0.1-    020929 649  0.6-  0.2-    031118 673  0.8+  0.0
    020917 G78  0.8+  0.3-    020929 118  0.1+  0.0     031118 673  0.0   1.6+
    020917 G78  0.1+  0.3-    020929 118  0.1+  0.6+    031120 673  0.4-  1.1-
    020917 G78  0.2+  0.5-    020929 118  0.4+  0.5+    031120 673  0.1+  0.5-
    020917 G78  0.5+  0.7-    020929 246  0.6+  0.2+    031120 673  0.3+  1.0-
    020917 G78  0.1-  0.2-    020929 246  0.5+  0.1+    031120 673  0.0   0.7-
    020919 644 (4.1-  0.4+)   020929 246  0.6+  0.2+
    020919 644 (4.1-  0.4+)   020929 246  0.4+  0.3+
    
    Ephemeris:
    2002 RB126               a,e,i = 1.43, 0.72, 15                  q = 0.3973
    Date    TT    R. A. (2000) Decl.     Delta      r     Elong.  Phase     V
    2003 11 17    07 13.77   +47 12.6    1.123    1.884   126.2    25.1    21.3
    2003 11 27    07 06.86   +50 32.3    0.977    1.811   134.5    22.9    20.8
    2003 12 07    06 48.50   +54 20.9    0.849    1.732   141.4    20.8    20.4
    2003 12 17    06 12.86   +58 06.8    0.743    1.647   144.6    20.3    19.9
    2003 12 27    05 15.71   +60 35.9    0.662    1.555   141.1    23.4    19.7
    2004 01 06    04 05.50   +60 15.2    0.608    1.457   131.2    30.5    19.6
    2004 01 16    03 03.42   +56 45.6    0.575    1.351   117.8    40.1    19.5
    2004 01 26    02 20.91   +51 22.7    0.558    1.237   103.2    50.8    19.6
    2004 02 05    01 54.53   +45 25.1    0.545    1.115    88.6    62.1    19.6
    2004 02 15    01 36.76   +39 16.6    0.530    0.984    74.0    74.8    19.7
    
    Kyle E. Smalley              (C) Copyright 2003 MPC           M.P.E.C. 2003-W26
    

    Read MPEC 2003-W25 Read MPEC 2003-W27


    MPEC number:

    Enter an MPEC number in one of the following forms:

    • 1997-B01 (the full form)
    • J97B01 (the packed version of the full form)
    • B01 (the abbreviated form)